When you browse on this site, cookies collect data to enhance your experience and personalize the content and advertising you see.
Visit our Privacy Policy to learn more. By continuing to use the site, you agree to this use of cookies and data.
  • In Hungary
  • List of Countries
  • For 7 days
  • Water Temperature
  • Satellite Maps
  • Weather Map
  • News
  • Weather Widgets
  • user-avatar
    Login

    Hourly Weather Jaszbereny

    Today, 17 June, Monday

    Time Temperature Precipitation Wind Pressure Humidity
    00:00 +21°C° 0.8 mm 2 mps 753 mmHg 88%
    01:00 +21°C° 0.8 mm 2 mps 753 mmHg 89%
    02:00 +20°C° 0.8 mm 2 mps 753 mmHg 90%
    03:00 +20°C° 0.8 mm 2 mps 753 mmHg 91%
    04:00 +20°C° 0.8 mm 2 mps 752 mmHg 91%
    05:00 +20°C° 0.5 mm 2 mps 753 mmHg 91%
    06:00 +21°C° 0.5 mm 2 mps 753 mmHg 90%
    07:00 +21°C° 0.5 mm 2 mps 753 mmHg 90%
    08:00 +21°C° 0.4 mm 2 mps 753 mmHg 90%
    09:00 +21°C° 0.4 mm 2 mps 753 mmHg 90%
    10:00 +21°C° 0.4 mm 2 mps 754 mmHg 90%
    11:00 +24°C° 0.4 mm 3 mps 753 mmHg 85%
    12:00 +25°C° 0.4 mm 3 mps 753 mmHg 80%
    13:00 +26°C° 0.4 mm 4 mps 753 mmHg 75%
    14:00 +26°C° 1.3 mm 4 mps 753 mmHg 77%
    15:00 +26°C° 1.3 mm 4 mps 753 mmHg 79%
    16:00 +26°C° 1.3 mm 4 mps 752 mmHg 81%
    17:00 +24°C° 3.6 mm 3 mps 752 mmHg 85%
    18:00 +22°C° 3.6 mm 3 mps 752 mmHg 89%
    19:00 +21°C° 3.6 mm 3 mps 752 mmHg 93%
    20:00 +21°C° 1.2 mm 3 mps 753 mmHg 93%
    21:00 +20°C° 1.2 mm 3 mps 753 mmHg 93%
    22:00 +20°C° 1.2 mm 3 mps 753 mmHg 93%
    23:00 +20°C° 0.2 mm 3 mps 753 mmHg 93%

    Tomorrow, 18 June, Tuesday

    Time Temperature Precipitation Wind Pressure Humidity
    00:00 +19°C° 0.2 mm 3 mps 753 mmHg 92%
    01:00 +19°C° 0.2 mm 3 mps 753 mmHg 92%
    02:00 +19°C° 0 mm 2 mps 752 mmHg 93%
    03:00 +18°C° 0 mm 2 mps 752 mmHg 93%
    04:00 +18°C° 0 mm 2 mps 752 mmHg 94%
    05:00 +19°C° 0 mm 2 mps 753 mmHg 92%
    06:00 +20°C° 0 mm 3 mps 753 mmHg 90%
    07:00 +21°C° 0 mm 4 mps 753 mmHg 89%
    08:00 +24°C° 0 mm 3 mps 753 mmHg 85%
    09:00 +25°C° 0 mm 3 mps 753 mmHg 82%
    10:00 +26°C° 0 mm 2 mps 753 mmHg 79%
    11:00 +27°C° 0.3 mm 2 mps 753 mmHg 74%
    12:00 +28°C° 0.3 mm 2 mps 752 mmHg 69%
    13:00 +29°C° 0.3 mm 2 mps 752 mmHg 64%
    14:00 +29°C° 0.4 mm 2 mps 752 mmHg 65%
    15:00 +29°C° 0.4 mm 2 mps 751 mmHg 66%
    16:00 +29°C° 0.4 mm 3 mps 751 mmHg 68%
    17:00 +28°C° 0.7 mm 2 mps 751 mmHg 73%
    18:00 +27°C° 0.7 mm 2 mps 751 mmHg 77%
    19:00 +25°C° 0.7 mm 1 mps 751 mmHg 82%
    20:00 +24°C° 0.5 mm 1 mps 751 mmHg 84%
    21:00 +23°C° 0.5 mm 1 mps 751 mmHg 86%
    22:00 +22°C° 0.5 mm 1 mps 751 mmHg 88%
    23:00 +22°C° 0.2 mm 1 mps 751 mmHg 89%

    Day after tomorrow, 19 June, Wednesday

    Time Temperature Precipitation Wind Pressure Humidity
    00:00 +22°C° 0.2 mm 1 mps 751 mmHg 89%
    01:00 +21°C° 0.2 mm 1 mps 751 mmHg 90%
    02:00 +21°C° 0.5 mm 1 mps 751 mmHg 90%
    03:00 +21°C° 0.5 mm 1 mps 751 mmHg 90%
    04:00 +19°C° 0.5 mm 0 mps 751 mmHg 91%
    05:00 +22°C° 0.2 mm 1 mps 751 mmHg 89%
    06:00 +23°C° 0.2 mm 1 mps 751 mmHg 87%
    07:00 +24°C° 0.2 mm 1 mps 752 mmHg 85%
    08:00 +25°C° 0.9 mm 1 mps 751 mmHg 81%
    09:00 +27°C° 0.9 mm 1 mps 751 mmHg 77%
    10:00 +28°C° 0.9 mm 1 mps 751 mmHg 73%
    11:00 +29°C° 0.8 mm 1 mps 751 mmHg 69%
    12:00 +29°C° 0.8 mm 1 mps 751 mmHg 64%
    13:00 +30°C° 0.8 mm 1 mps 751 mmHg 59%
    14:00 +30°C° 0 mm 1 mps 750 mmHg 59%
    15:00 +30°C° 0 mm 1 mps 750 mmHg 59%
    16:00 +30°C° 0 mm 1 mps 750 mmHg 59%
    17:00 +29°C° 0 mm 1 mps 750 mmHg 64%
    18:00 +28°C° 0 mm 1 mps 750 mmHg 68%
    19:00 +27°C° 0 mm 1 mps 750 mmHg 73%
    20:00 +25°C° 2.1 mm 1 mps 750 mmHg 77%
    21:00 +24°C° 2.1 mm 1 mps 750 mmHg 82%
    22:00 +23°C° 2.1 mm 1 mps 750 mmHg 86%
    23:00 +23°C° 1 mm 1 mps 750 mmHg 87%

    20 June, Thursday

    Time Temperature Precipitation Wind Pressure Humidity
    00:00 +22°C° 1 mm 1 mps 750 mmHg 88%
    01:00 +22°C° 1 mm 1 mps 750 mmHg 88%
    02:00 +22°C° 0.8 mm 1 mps 750 mmHg 89%
    03:00 +20°C° 0.8 mm 0 mps 750 mmHg 90%
    04:00 +20°C° 0.8 mm 0 mps 750 mmHg 91%
    05:00 +21°C° 0.9 mm 0 mps 750 mmHg 90%
    06:00 +21°C° 0.9 mm 0 mps 751 mmHg 89%
    07:00 +24°C° 0.9 mm 1 mps 751 mmHg 88%
    08:00 +26°C° 0.6 mm 1 mps 751 mmHg 82%
    09:00 +27°C° 0.6 mm 1 mps 751 mmHg 75%
    10:00 +29°C° 0.6 mm 2 mps 751 mmHg 68%
    11:00 +29°C° 0.6 mm 2 mps 751 mmHg 66%
    12:00 +30°C° 0.6 mm 2 mps 751 mmHg 63%
    13:00 +30°C° 0.6 mm 2 mps 751 mmHg 61%
    14:00 +30°C° 0.1 mm 2 mps 751 mmHg 62%
    15:00 +30°C° 0.1 mm 2 mps 751 mmHg 63%
    16:00 +30°C° 0.1 mm 2 mps 750 mmHg 64%
    17:00 +29°C° 0.4 mm 2 mps 750 mmHg 68%
    18:00 +28°C° 0.4 mm 2 mps 750 mmHg 73%
    19:00 +26°C° 0.4 mm 1 mps 750 mmHg 77%
    20:00 +25°C° 0.2 mm 1 mps 750 mmHg 78%
    21:00 +24°C° 0.2 mm 1 mps 751 mmHg 79%
    22:00 +24°C° 0.2 mm 1 mps 751 mmHg 81%
    23:00 +23°C° 0 mm 1 mps 751 mmHg 82%

    21 June, Friday

    Time Temperature Precipitation Wind Pressure Humidity
    00:00 +21°C° 0 mm 0 mps 751 mmHg 83%
    01:00 +20°C° 0 mm 0 mps 751 mmHg 85%
    02:00 +22°C° 0 mm 1 mps 751 mmHg 85%
    03:00 +22°C° 0 mm 1 mps 751 mmHg 86%
    04:00 +22°C° 0 mm 1 mps 751 mmHg 87%
    05:00 +23°C° 0 mm 1 mps 751 mmHg 85%
    06:00 +24°C° 0 mm 1 mps 752 mmHg 83%
    07:00 +25°C° 0 mm 1 mps 752 mmHg 81%
    08:00 +27°C° 0.4 mm 2 mps 752 mmHg 76%
    09:00 +28°C° 0.4 mm 2 mps 752 mmHg 71%
    10:00 +29°C° 0.4 mm 3 mps 752 mmHg 66%
    11:00 +30°C° 0.5 mm 3 mps 752 mmHg 64%
    12:00 +30°C° 0.5 mm 3 mps 751 mmHg 63%
    13:00 +30°C° 0.5 mm 3 mps 751 mmHg 61%
    14:00 +30°C° 0.1 mm 3 mps 751 mmHg 62%
    15:00 +31°C° 0.1 mm 3 mps 751 mmHg 62%
    16:00 +31°C° 0.1 mm 3 mps 750 mmHg 63%
    17:00 +29°C° 0.2 mm 2 mps 750 mmHg 67%
    18:00 +28°C° 0.2 mm 2 mps 750 mmHg 71%
    19:00 +26°C° 0.2 mm 2 mps 750 mmHg 76%
    20:00 +25°C° 0 mm 2 mps 750 mmHg 77%
    21:00 +24°C° 0 mm 2 mps 750 mmHg 78%
    22:00 +23°C° 0 mm 2 mps 751 mmHg 79%
    23:00 +23°C° 0 mm 2 mps 750 mmHg 80%

    22 June, Saturday

    Time Temperature Precipitation Wind Pressure Humidity
    00:00 +23°C° 0 mm 2 mps 750 mmHg 81%
    01:00 +21°C° 0 mm 2 mps 750 mmHg 82%
    02:00 +22°C° 0.7 mm 1 mps 750 mmHg 84%
    03:00 +22°C° 0.7 mm 1 mps 750 mmHg 87%
    04:00 +21°C° 0.7 mm 1 mps 750 mmHg 90%
    05:00 +23°C° 0.1 mm 1 mps 750 mmHg 88%
    06:00 +24°C° 0.1 mm 1 mps 751 mmHg 86%
    07:00 +25°C° 0.1 mm 2 mps 751 mmHg 84%
    08:00 +26°C° 0.2 mm 2 mps 751 mmHg 80%
    09:00 +28°C° 0.2 mm 3 mps 751 mmHg 75%
    10:00 +29°C° 0.2 mm 3 mps 751 mmHg 71%
    11:00 +29°C° 0.2 mm 3 mps 751 mmHg 67%
    12:00 +30°C° 0.2 mm 3 mps 751 mmHg 63%
    13:00 +30°C° 0.2 mm 4 mps 751 mmHg 59%
    14:00 +30°C° 0.1 mm 4 mps 751 mmHg 61%
    15:00 +30°C° 0.1 mm 3 mps 751 mmHg 63%
    16:00 +30°C° 0.1 mm 3 mps 750 mmHg 65%
    17:00 +28°C° 0.1 mm 3 mps 751 mmHg 71%
    18:00 +27°C° 0.1 mm 3 mps 751 mmHg 77%
    19:00 +25°C° 0.1 mm 3 mps 751 mmHg 82%
    20:00 +24°C° 0 mm 3 mps 751 mmHg 83%
    21:00 +22°C° 0 mm 3 mps 752 mmHg 83%
    22:00 +21°C° 0 mm 4 mps 752 mmHg 83%
    23:00 +20°C° 0 mm 4 mps 752 mmHg 84%
    Show more